Regional Weather Roundup
Issued by NWS Grand Forks, ND

Home | Current Version | Previous Version | Text Only | Print | Product List | Glossary Off
Versions: 1 2 3 4 5 6 7 8 9 10 11 12 13 14 15 16 17 18 19 20 21 22 23 24 25 26 27 28 29 30 31 32 33 34 35 36 37 38 39 40 41 42 43 44 45 46 47 48 49 50

000
ASUS43 KFGF 012331
RWRFGF
PRAIRIE TO PINES  WEATHER ROUNDUP
NATIONAL WEATHER SERVICE EASTERN NORTH DAKOTA/GRAND FORKS ND
600 PM CDT TUE SEP 01 2015

 **SATELLITE DATA USED TO AUGMENT SKY COVER AT AUTOMATED STATIONS**
 *****  WEATHER ACROSS EASTERN NORTH DAKOTA  *****

CITY           SKY/WX    TMP DP  RH WIND       PRES   REMARKS
GRAND FORKS    MOSUNNY   86  53  32 S9        29.81S
GRAND FRKS AFB SUNNY     86  53  31 S8        29.82S
GRAND FRKS NWS   N/A     84 N/A N/A SE12        N/A
DEVILS LAKE    SUNNY     84  54  34 SE13      29.80S
FARGO          MOSUNNY   88  50  27 SE10      29.81S
WAHPETON ARPT  MOCLDY    82  64  54 SE8       29.84R
$$

 ***** WEATHER ACROSS CENTRAL AND WESTERN NORTH DAKOTA  *****

CITY           SKY/WX    TMP DP  RH WIND       PRES   REMARKS
BISMARCK       SUNNY     88  63  43 SE10      29.77F
MINOT          SUNNY     88  51  28 S15       29.75S
JAMESTOWN      SUNNY     86  63  45 SE9       29.81S
MINOT AFB      SUNNY     89  51  27 S12       29.74R
GARRISON         N/A     87  58  37 S10       29.77F
WILLISTON      SUNNY     93  44  18 S10       29.72F
DICKINSON      SUNNY     88  54  31 SE12      29.78S
HETTINGER      SUNNY     88  54  31 SW6       29.81S
$$

 *****  OTHER AIRPORT OBSERVATIONS IN OUR AREA  *****

CITY           SKY/WX    TMP DP  RH WIND       PRES   REMARKS
WALHALLA       FAIR      84  54  34 MISG      29.80R
GRAFTON AIRPOR FAIR      84  57  39 S10       29.81S
VALLEY CITY AR FAIR      82  63  51 SE12      29.83S
CANDO          FAIR      84  52  32 S13G21    29.81R
CAVALIER APRT  FAIR      86  54  32 S9        29.80R
GWINNER        FAIR      84  72  65 SE10      29.83S
SHEYENNE NWR     N/A     85  65  51 SE8       29.95S
ROLLA            N/A     84  48  28 S13       29.81S
 ***** THE ABOVE OBSERVATIONS ARE NON NWS ARE NOT QUALITY
       CONTROLLED AND MAY MIS-REPORT RAIN FOR SNOW...
$$

  *****  WEATHER ACROSS NORTHERN MINNESOTA  *****

CITY           SKY/WX    TMP DP  RH WIND       PRES   REMARKS
FLAG ISLAND    SUNNY     73  63  68 S7        29.84S
WARROAD        SUNNY     82  61  47 SW5       29.86S
ROSEAU         SUNNY     82  61  47 SW7       29.85S
HALLOCK        SUNNY     84  52  32 S9        29.81S
THF RVR FALLS  SUNNY     82  54  36 SE5       29.85S
BAUDETTE       SUNNY     82  56  40 S6        29.87S
WASKISH        SUNNY     81  64  57 CALM      29.89S
CROOKSTON      SUNNY     86  50  28 S7        29.83S
STEPHEN NDAWN    N/A     84  57  39 S6          N/A
GREENBUSH NDAW   N/A     82  57  42 S5          N/A
$$
  *****  WEATHER ACROSS CENTRAL AND WEST MINNESOTA  *****

CITY           SKY/WX    TMP DP  RH WIND       PRES   REMARKS
FOSSTON        MOSUNNY   88  48  25 SE6       29.87S
BEMIDJI        MOSUNNY   81  56  43 E8        29.89S
PARK RAPIDS    CLOUDY    83  54  36 SE8       29.89S
ELBOW LAKE     FAIR      79  73  81 SE8       29.86R
WADENA         CLOUDY    81  63  54 SE9       29.89R
DETROIT LAKES  PTSUNNY   81  55  41 E5G10     29.88S
MOORHEAD       MOSUNNY   86  54  32 SE10      29.83R
FERGUS FALLS   PTSUNNY   82  70  65 SE9       29.84R
MORRIS MN      CLOUDY    79  72  78 S5        29.87R
STAPLES        CLOUDY    79  63  57 CALM      29.89S
$$
  *****  WEATHER ELSEWHERE ACROSS MINNESOTA  *****

CITY           SKY/WX    TMP DP  RH WIND       PRES   REMARKS
DULUTH         PTSUNNY   81  68  64 SW8       29.92R
INTRNTL FALLS  SUNNY     81  55  40 W3        29.89R
ELY            SUNNY     75  52  43 W5        29.93R
CLOQUET        PTSUNNY   81  64  57 CALM      29.92S
WHEATON        CLOUDY    79  70  73 SE13      29.86S
BRAINERD       CLOUDY    80  59  48 E3        29.90S
HIBBING        MOSUNNY   81  57  43 CALM      29.92R
ALEXANDRIA     CLOUDY    79  72  79 SE9       29.89S
SAINT CLOUD    CLOUDY    81  73  76 S6        29.90R
MINNEAPOLIS    CLOUDY    86  73  65 VRB5      29.88S HX  93
$$

  *****  WEATHER ACROSS SOUTH DAKOTA  *****

CITY           SKY/WX    TMP DP  RH WIND       PRES   REMARKS
SIOUX FALLS    CLOUDY    76  71  85 CALM      29.87F
BROOKINGS      CLOUDY   N/A N/A N/A SE14      29.89F
WATERTOWN      CLOUDY    81  65  58 SE7       29.85F
HURON          SUNNY     83  67  58 SE15      29.81R
SISSETON         N/A     82  72  71 SE10      29.83R
ABERDEEN       SUNNY     85  66  53 S9        29.81S
MITCHELL       MOSUNNY   80  71  74 SE13G23   29.84R
PIERRE         SUNNY     91  60  35 SE22G29   29.75S HX  90
MOBRIDGE       SUNNY     90  67  46 S15       29.74S HX  93
RAPID CITY     SUNNY     86  58  38 NE10      29.84S
$$

  *****  SOME WEATHER IN NEARBY STATES *****

CITY           SKY/WX    TMP DP  RH WIND       PRES   REMARKS
GLASGOW MT     SUNNY     87  33  14 W12       29.74S
GREAT FALLS MT MOSUNNY   84  29  13 SW12      29.78F
CHEYENNE WY    MOSUNNY   85  33  15 VRB7      30.09S
SCOTTSBLUFF NE SUNNY     92  41  17 S6        29.91S
OMAHA NE       PTSUNNY   88  73  61 SE16      29.89F HX  95
DES MOINES IA  PTSUNNY   88  70  55 S13       29.94S HX  93
DAVENPORT IA   SUNNY     86  71  60 SW8       29.98F HX  91
CHICAGO IL     MOSUNNY   86  72  62 SW12      29.99S HX  92
EAU CLAIRE WI  PTSUNNY   85  73  67 S6        29.90R HX  91
LA CROSSE WI   MOSUNNY   86  73  65 S7        29.91R HX  93
$$

  *****  SOME NATIONAL WEATHER *****

CITY           SKY/WX    TMP DP  RH WIND       PRES   REMARKS
LA GUARDIA NY  PTCLDY    81  63  54 S8        30.01R
RALEIGH NC     MOCLDY    87  68  52 E3        30.05S HX  90
ATLANTA GA     PTSUNNY   86  65  49 S3        30.09S
NEW ORLEANS LA PTSUNNY   87  69  54 S12       30.01F HX  91
OKLAHOMA CITY  MOSUNNY   91  62  37 S12       29.97S HX  91
ALBUQUERQUE NM LGT RAIN  82  44  26 SW18G31   30.14S
SALT LAKE CITY PTSUNNY   90  38  16 S13       29.89F
LOS ANGELES CA PTSUNNY   74  62  66 W14       29.89F
BOISE ID       PTSUNNY   84  40  21 NW8       29.79F
SEATTLE WA     CLOUDY    60  58  92 S8        29.83F
$$

*** WEATHER ACROSS MANITOBA...SASKATCHEWAN AND ONTARIO ***
                ***ONTARIO***

CITY           SKY/WX    TMP DP  RH WIND       PRES   REMARKS
GERALDTON      PTSUNNY   75  59  57 W7        29.86R
THUNDER BAY    MOSUNNY   79  55  44 NW7       29.87S
SIOUX LOOKOUT  MOSUNNY   77  50  38 NW7       29.86S
TORONTO        CLEAR     81  66  61 SE6       30.01S
BIG TROUT LK   SUNNY     70  59  68 N8        29.77R
PICKLE LAKE    MOSUNNY   79  50  36 W9G17     29.80S
DRYDEN         SUNNY     79  46  31 SW10      29.87R
KENORA         SUNNY     77  52  41 S9        29.87S
$$
                *** MANITOBA***

CITY           SKY/WX    TMP DP  RH WIND       PRES   REMARKS
BRANDON        MOSUNNY   88  55  33 S12G18    29.75S
DAUPHIN        SUNNY     84  50  30 S9        29.71S
ISLAND LAKE    PTSUNNY   73  63  68 SE6       29.72R
PILOT MOUND      N/A     86  50  28 S16         N/A
THE PAS        MOSUNNY   79  48  34 W10G18    29.63R
THOMPSON       PTSUNNY   68  57  68 E6        29.71R
WINNIPEG       SUNNY     86  55  35 SE6       29.78S
CHURCHILL      CLOUDY    54  46  76 S10       29.79S
GILLAM         MOSUNNY   59  52  77 NE3       29.78F
$$
                ***SASKATCHEWAN***

CITY           SKY/WX    TMP DP  RH WIND       PRES   REMARKS
ESTEVAN        MOSUNNY   90  48  24 SW15G29   29.71F
KINDERSLEY     MOSUNNY   75  37  25 NW8       29.69R
LLOYDMINSTER   PTSUNNY   68  37  32 NW12G17   29.68R
PRINCE ALBERT  MOSUNNY   77  50  38 SW10G17   29.61R
REGINA         PTSUNNY   79  45  29 W15G21    29.73R
YORKTON        SUNNY     82  46  28 SW14      29.69S
N. BATTLEFORD  SUNNY     75  37  25 W13G21    29.68R
LA RONGE       MOSUNNY   79  50  36 S9        29.54R
SASKATOON      MOSUNNY   79  41  25 W12G18    29.67R
SWIFT CURRENT  SUNNY     79  34  19 W21       29.72S
$$
NOTE: THESE ARE AUTOMATED STATIONS WITH LIMITED QUALITY CONTROL
      "FAIR" INDICATES FEW OR NO CLOUDS BELOW 12,000 FEET WITH NO
      SIGNIFICANT WEATHER AND/OR OBSTRUCTIONS TO VISIBILITY.
      SKY/WX - SKY CONDITION AND SIGNIFICANT WEATHER.
      TMP - AIR TEMPERATURE.    DP   - DEWPOINT TEMPERATURE.
      RH  - RELATIVE HUMIDITY.  PRES - PRESSURE.
      HX  - HEAT INDEX.         WCI  - WIND CHILL INDEX.
$



USA.gov is the U.S. government's official web portal to all federal, state and local government web resources and services.